Weather History for K1A6 - November, 2011

Change the Weather History Date:

Friday, November 4, 2011

  Actual Average (KLOZ) Record (KLOZ)
Temperature  
Mean Temperature 50 °F 52 °F  
Max Temperature 57 °F 63 °F 82 °F (1977)
Min Temperature 42 °F 40 °F 18 °F (1966)
Degree Days  
Heating Degree Days 16 14  
Month to date heating degree days 53  
Since 1 July heating degree days 359  
Cooling Degree Days 0 0  
Month to date cooling degree days 0  
Moisture  
Dew Point 46 °F    
Average Humidity 88    
Maximum Humidity 100    
Minimum Humidity 72    
Precipitation  
Precipitation 0.00 in 0.12 in 2.46 in (2004)
Month to date precipitation 0.47  
Sea Level Pressure  
Sea Level Pressure 30.05 in    
Wind  
Wind Speed 3 mph (North)    
Max Wind Speed 10 mph    
Max Gust Speed 16 mph    
Visibility 10 miles    
Events Rain    
T = Trace of Precipitation, MM = Missing Value Source: NWS Daily Summary

Daily Weather History Graph

Daily Weather History Graph

Search for Another Location

Airport or City:

Trip Planner

Search our weather history database for the weather conditions in past years. The results will help you decide how hot, cold, wet, or windy it might be!

Date:

Astronomy

Nov. 04, 2011 Rise Set
Actual Time 7:01 AM CDT 5:35 PM CDT
Civil Twilight 6:34 AM CDT 6:02 PM CDT
Nautical Twilight 6:03 AM CDT 6:32 PM CDT
Astronomical Twilight 5:33 AM CDT 7:03 PM CDT
Moon 2:18 PM CDT (11/4) 1:21 AM CDT (11/4)
Length of Visible Light 11h 28m
Length of Day
10h 34m
Waxing Gibbous, 69% of the Moon is Illuminated
Nov 4
Waxing Gibbous
Nov 10
Full
Nov 18
Last Quarter
Nov 25
New
Dec 2
First Quarter

Hourly Weather History & Observations

Time (CDT) Temp. Windchill Dew Point Humidity Pressure Visibility Wind Dir Wind Speed Gust Speed Precip Events Conditions
12:15 AM 48.2 °F - 46.4 °F 93% 29.89 in 10.0 mi Calm Calm - N/A   Overcast
12:35 AM 48.2 °F - 46.4 °F 93% 29.89 in 10.0 mi WNW 3.5 mph - N/A   Overcast
12:55 AM 48.2 °F - 46.4 °F 93% 29.90 in 10.0 mi Calm Calm - N/A   Overcast
1:15 AM 46.4 °F 44.3 °F 46.4 °F 100% 29.90 in 10.0 mi North 4.6 mph - N/A   Drizzle
1:35 AM 46.4 °F 44.3 °F 46.4 °F 100% 29.91 in 10.0 mi NE 4.6 mph - N/A   Overcast
1:55 AM 46.4 °F 42.9 °F 46.4 °F 100% 29.91 in 10.0 mi NNE 6.9 mph - N/A   Overcast
2:15 AM 46.4 °F 45.2 °F 46.4 °F 100% 29.91 in 7.0 mi NNE 3.5 mph - N/A   Overcast
2:35 AM 46.4 °F - 44.6 °F 93% 29.91 in 10.0 mi Calm Calm - N/A   Overcast
2:55 AM 46.4 °F 42.9 °F 44.6 °F 93% 29.91 in 10.0 mi NW 6.9 mph - N/A   Overcast
3:15 AM 46.4 °F 45.2 °F 44.6 °F 93% 29.91 in 10.0 mi West 3.5 mph - N/A   Overcast
3:35 AM 46.4 °F 44.3 °F 42.8 °F 87% 29.91 in 10.0 mi NE 4.6 mph - N/A   Overcast
3:55 AM 46.4 °F - 44.6 °F 93% 29.91 in 10.0 mi Calm Calm - N/A   Overcast
4:15 AM 46.4 °F 42.9 °F 44.6 °F 93% 29.91 in 10.0 mi North 6.9 mph - N/A   Light Drizzle
4:35 AM 46.4 °F - 44.6 °F 93% 29.92 in 10.0 mi Calm Calm - N/A Rain Light Rain
4:55 AM 46.4 °F - 44.6 °F 93% 29.93 in 10.0 mi Calm Calm - N/A Rain Light Rain
5:15 AM 46.4 °F - 46.4 °F 100% 29.93 in 10.0 mi Calm Calm - N/A Rain Rain
5:35 AM 46.4 °F 45.2 °F 44.6 °F 93% 29.94 in 10.0 mi East 3.5 mph - N/A Rain Rain
6:55 AM 46.4 °F 44.3 °F 46.4 °F 100% 29.99 in 10.0 mi ENE 4.6 mph - N/A   Overcast
7:15 AM 46.4 °F - 46.4 °F 100% 30.00 in 10.0 mi Calm Calm - N/A   Overcast
7:35 AM 46.4 °F 43.5 °F 46.4 °F 100% 30.01 in 10.0 mi ENE 5.8 mph - N/A   Overcast
7:55 AM 46.4 °F 45.2 °F 46.4 °F 100% 30.01 in 10.0 mi West 3.5 mph - N/A   Overcast
8:15 AM 48.2 °F - 46.4 °F 93% 30.02 in 10.0 mi Calm Calm - N/A   Overcast
8:35 AM 48.2 °F - 46.4 °F 93% 30.03 in 10.0 mi Calm Calm - N/A   Overcast
8:55 AM 48.2 °F - 46.4 °F 93% 30.04 in 10.0 mi Calm Calm - N/A   Overcast
9:15 AM 48.2 °F - 46.4 °F 93% 30.05 in 10.0 mi Calm Calm - N/A   Overcast
9:35 AM 48.2 °F - 48.2 °F 100% 30.05 in 10.0 mi NNE 5.8 mph - N/A   Overcast
9:55 AM 50.0 °F - 48.2 °F 94% 30.05 in 10.0 mi North 4.6 mph - N/A   Overcast
10:15 AM 51.8 °F - 48.2 °F 88% 30.05 in 10.0 mi North 5.8 mph - N/A   Overcast
10:35 AM 51.8 °F - 48.2 °F 88% 30.07 in 10.0 mi North 9.2 mph - N/A   Overcast
10:55 AM 51.8 °F - 48.2 °F 88% 30.07 in 10.0 mi Calm Calm - N/A   Overcast
11:15 AM 53.6 °F - 48.2 °F 82% 30.07 in 10.0 mi NNW 5.8 mph - N/A   Overcast
11:35 AM 53.6 °F - 48.2 °F 82% 30.07 in 10.0 mi NNW 8.1 mph - N/A   Overcast
11:55 AM 53.6 °F - 48.2 °F 82% 30.07 in 10.0 mi NNE 8.1 mph - N/A   Overcast
12:15 PM 53.6 °F - 48.2 °F 82% 30.08 in 10.0 mi North 6.9 mph - N/A   Overcast
12:55 PM 53.6 °F - 48.2 °F 82% 30.07 in 10.0 mi North 5.8 mph - N/A   Overcast
1:15 PM 55.4 °F - 50.0 °F 82% 30.07 in 10.0 mi North 5.8 mph - N/A   Overcast
1:35 PM 55.4 °F - 50.0 °F 82% 30.07 in 10.0 mi North 9.2 mph - N/A   Overcast
1:55 PM 55.4 °F - 48.2 °F 77% 30.08 in 10.0 mi North 9.2 mph - N/A   Overcast
2:35 PM 55.4 °F - 48.2 °F 77% 30.08 in 10.0 mi NNW 8.1 mph - N/A   Overcast
3:35 PM 57.2 °F - 48.2 °F 72% 30.09 in 10.0 mi NNW 5.8 mph - N/A   Overcast
3:55 PM 57.2 °F - 48.2 °F 72% 30.09 in 10.0 mi North 6.9 mph - N/A   Overcast
4:35 PM 55.4 °F - 46.4 °F 72% 30.11 in 10.0 mi NE 10.4 mph 16.1 mph N/A   Overcast
4:55 PM 55.4 °F - 46.4 °F 72% 30.12 in 10.0 mi ENE 5.8 mph - N/A   Overcast
5:15 PM 53.6 °F - 46.4 °F 77% 30.13 in 10.0 mi NNE 6.9 mph - N/A   Mostly Cloudy
5:35 PM 53.6 °F - 44.6 °F 72% 30.14 in 10.0 mi NE 4.6 mph - N/A   Mostly Cloudy
5:55 PM 53.6 °F - 46.4 °F 77% 30.15 in 10.0 mi NNE 3.5 mph - N/A   Mostly Cloudy
6:15 PM 53.6 °F - 46.4 °F 77% 30.16 in 10.0 mi North 3.5 mph - N/A   Overcast
6:35 PM 53.6 °F - 44.6 °F 72% 30.17 in 10.0 mi North 4.6 mph - N/A   Overcast
6:55 PM 53.6 °F - 44.6 °F 72% 30.17 in 10.0 mi Calm Calm - N/A   Overcast
7:15 PM 53.6 °F - 46.4 °F 77% 30.17 in 10.0 mi Calm Calm - N/A   Overcast
7:35 PM 51.8 °F - 46.4 °F 82% 30.17 in 10.0 mi Calm Calm - N/A   Overcast
7:55 PM 51.8 °F - 46.4 °F 82% 30.18 in 10.0 mi Calm Calm - N/A   Overcast
8:15 PM 48.2 °F - 44.6 °F 87% 30.18 in 10.0 mi Calm Calm - N/A   Scattered Clouds
8:35 PM 46.4 °F - 44.6 °F 93% 30.18 in 7.0 mi Calm Calm - N/A   Clear
8:55 PM 44.6 °F - 44.6 °F 100% 30.19 in 7.0 mi Calm Calm - N/A   Clear
9:15 PM 44.6 °F - 42.8 °F 93% 30.20 in 5.0 mi Calm Calm - N/A   Clear
9:35 PM 42.8 °F - 42.8 °F 100% 30.20 in 5.0 mi Calm Calm - N/A   Clear
9:55 PM 42.8 °F - 42.8 °F 100% 30.21 in 4.0 mi Calm Calm - N/A   Scattered Clouds
10:15 PM 42.8 °F - 41.0 °F 93% 30.20 in 4.0 mi Calm Calm - N/A   Scattered Clouds
10:35 PM 42.8 °F - 41.0 °F 93% 30.21 in 4.0 mi Calm Calm - N/A   Clear
10:55 PM 41.0 °F - 41.0 °F 100% 30.20 in 4.0 mi Calm Calm - N/A   Clear
11:15 PM 39.2 °F - 39.2 °F 100% 30.20 in 3.0 mi Calm Calm - N/A   Clear